Tracking 23114 objects as of 16-May-2021
HD Live streaming from Space Station
objects crossing your sky now

SL-12 R/B(2)

Track SL-12 R/B(2) now!


NORAD ID: 24815
Int'l Code: 1997-026D
Perigee: 6,353.2 km
Apogee: 36,001.7 km
Inclination: 16.9 °
Period: 758.4 minutes
Semi major axis: 27548 km
RCS: 24.8947 m2 (large)
Launch date: May 24, 1997
Source: Commonwealth of Independent States (former USSR) (CIS)
Launch site: TYURATAM MISSILE AND SPACE COMPLEX (TTMTR)

Note: This is a ROCKET BODY
aabbcc
Your satellite tracking list
Your tracking list is empty




NASA's NSSDC Master Catalog

Two Line Element Set (TLE):
1 24815U 97026D   21136.34006248 -.00000080  00000-0  00000-0 0  9993
2 24815  16.9182 225.7812 5381156  43.9361   0.7850  1.89870496166286
Source of the keplerian elements: AFSPC